Regional Weather Roundup
Issued by NWS

Home | Current Version | Previous Version | Graphics & Text | Print | Product List | Glossary On
Versions: 1 2 3 4 5 6 7 8 9 10 11 12 13 14 15 16 17 18 19 20 21 22 23 24 25 26 27 28 29 30 31 32 33 34 35 36 37 38 39 40 41 42 43 44 45 46 47 48 49
000
ASUS45 KCYS 300010
RWRWY

WYOMING REGIONAL WEATHER ROUNDUP
NATIONAL WEATHER SERVICE CHEYENNE WY
600 PM MDT SAT AUG 29 2015

NOTE:  "FAIR" INDICATES FEW OR NO CLOUDS BELOW 12,000 FEET
WITH NO SIGNIFICANT WEATHER AND/OR OBSTRUCTIONS TO VISIBILITY.

WYZ001-300100-
YELLOWSTONE NATIONAL PARK

CITY           SKY/WX    TMP DP  RH WIND       PRES   REMARKS
LK YELLOWSTONE   N/A     67  43  41 CALM      30.22F
6HR MIN TEMP:  62; 6HR MAX TEMP:  69;

W YELLOWSTONE  NOT AVBL

$$
WYZ002>013-054>058-071-098>099-300100-
NORTHERN WYOMING

CITY           SKY/WX    TMP DP  RH WIND       PRES   REMARKS
JACKSON        SUNNY     82  39  21 S16G25    30.10F
CODY           FAIR      84  43  23 CALM      29.97F
GREYBULL       FAIR      95  36  12 S10       29.85F HX  90
6HR MIN TEMP:  87; 6HR MAX TEMP:  97;

WORLAND        FAIR      92  42  17 SW8       29.89F
6HR MIN TEMP:  85; 6HR MAX TEMP:  98;

SHERIDAN       FAIR      97  37  12 NE7       29.87F HX  92
6HR MIN TEMP:  92; 6HR MAX TEMP: 101;

BUFFALO        FAIR      91  37  15 SW8       29.97S
6HR MIN TEMP:  90; 6HR MAX TEMP:  97;

GILLETTE       FAIR      93  37  14 S12G18    29.93F
6HR MIN TEMP:  91; 6HR MAX TEMP:  96;

HULETT         FAIR      90  41  18 S10       29.97S
NEWCASTLE      FAIR      90  32  12 SE8       29.99F

$$
WYZ014>020-022>026-101>103-300100-
CENTRAL WYOMING

CITY           SKY/WX    TMP DP  RH WIND       PRES   REMARKS
BIG PINEY      FAIR      81  38  21 W9        30.18F
6HR MIN TEMP:  73; 6HR MAX TEMP:  85; 6HR PCP: TRACE;

PINEDALE       FAIR      81  32  17 SW14      30.19F
DUBOIS         FAIR      77  34  20 SW10G18   30.17F
LANDER         FAIR      85  34  16 SW13      30.01F
6HR MIN TEMP:  79; 6HR MAX TEMP:  94;

RIVERTON       FAIR      91  31  11 CALM      30.02F
6HR MIN TEMP:  81; 6HR MAX TEMP:  92;

CASPER         FAIR      89  26  10 S10       30.05F
6HR MIN TEMP:  87; 6HR MAX TEMP:  92;

DOUGLAS        FAIR      91  29  11 SE13      30.04F
6HR MIN TEMP:  89; 6HR MAX TEMP:  94;


$$
WYZ021-027>030-104>119-300100-
SOUTHERN WYOMING

CITY           SKY/WX    TMP DP  RH WIND       PRES   REMARKS
EVANSTON       FAIR      84  33  16 SW16      30.18F
6HR MIN TEMP:  82; 6HR MAX TEMP:  86;

KEMMERER       FAIR     N/A N/A N/A SW15      30.20F
FORT BRIDGER   PTCLDY    86  32  14 SW13G23   30.20F
ROCK SPRINGS   FAIR      83  32  16 S10       30.16F
6HR MIN TEMP:  81; 6HR MAX TEMP:  87;

DIXON          FAIR      87  25  10 SW7       30.22F
RAWLINS        FAIR      83  25  12 SW13      30.20F
6HR MIN TEMP:  79; 6HR MAX TEMP:  86;

SARATOGA       FAIR      81  30  16 E6        30.24F
LARAMIE        FAIR      81  20  10 NW6       30.24F
6HR MIN TEMP:  78; 6HR MAX TEMP:  83;

CHEYENNE       FAIR      83  38  20 S9        30.18F
6HR MIN TEMP:  82; 6HR MAX TEMP:  85;

TORRINGTON     FAIR      90  41  18 SE13      30.00F
6HR MIN TEMP:  85; 6HR MAX TEMP:  96;

PINE BLUFFS    FAIR      86  34  15 S8        30.12F

$$


USA.gov is the U.S. government's official web portal to all federal, state and local government web resources and services.